• In Lithuania
  • List of Countries
  • For 7 days
  • Water Temperature
  • Satellite Maps
  • Weather Map
  • Weather Widgets
  • user-avatar
    Login

    Hourly Weather Samos

    Today, 25 September, Tuesday

    Time Temperature Precipitation Wind Pressure Humidity
    00:00 +19°C° 0 mm 1 mps 720 mmHg 83%
    01:00 +19°C° 0 mm 1 mps 720 mmHg 83%
    02:00 +18°C° 0 mm 1 mps 720 mmHg 84%
    03:00 +18°C° 0 mm 1 mps 720 mmHg 83%
    04:00 +17°C° 0 mm 2 mps 720 mmHg 82%
    05:00 +17°C° 0 mm 2 mps 720 mmHg 81%
    06:00 +18°C° 0 mm 3 mps 720 mmHg 73%
    07:00 +20°C° 0 mm 4 mps 720 mmHg 65%
    08:00 +21°C° 0 mm 5 mps 720 mmHg 56%
    09:00 +23°C° 0 mm 5 mps 721 mmHg 49%
    10:00 +26°C° 0 mm 5 mps 721 mmHg 42%
    11:00 +28°C° 0 mm 6 mps 721 mmHg 34%
    12:00 +29°C° 0 mm 6 mps 721 mmHg 33%
    13:00 +30°C° 0 mm 7 mps 721 mmHg 32%
    14:00 +31°C° 0 mm 8 mps 721 mmHg 30%
    15:00 +29°C° 0 mm 9 mps 721 mmHg 35%
    16:00 +27°C° 0 mm 9 mps 721 mmHg 39%
    17:00 +26°C° 0 mm 10 mps 721 mmHg 44%
    18:00 +23°C° 0 mm 10 mps 721 mmHg 51%
    19:00 +19°C° 0 mm 10 mps 721 mmHg 57%
    20:00 +17°C° 0 mm 11 mps 722 mmHg 64%
    21:00 +16°C° 0 mm 11 mps 722 mmHg 67%
    22:00 +14°C° 0 mm 11 mps 722 mmHg 69%
    23:00 +13°C° 0 mm 11 mps 722 mmHg 72%

    Tomorrow, 26 September, Wednesday

    Time Temperature Precipitation Wind Pressure Humidity
    00:00 +13°C° 0 mm 11 mps 722 mmHg 72%
    01:00 +13°C° 0 mm 11 mps 722 mmHg 73%
    02:00 +12°C° 0 mm 12 mps 722 mmHg 73%
    03:00 +12°C° 0 mm 12 mps 722 mmHg 74%
    04:00 +12°C° 0 mm 12 mps 722 mmHg 74%
    05:00 +10°C° 0 mm 12 mps 722 mmHg 74%
    06:00 +12°C° 0 mm 12 mps 722 mmHg 69%
    07:00 +13°C° 0 mm 12 mps 722 mmHg 64%
    08:00 +14°C° 0 mm 12 mps 722 mmHg 58%
    09:00 +17°C° 0 mm 12 mps 722 mmHg 51%
    10:00 +19°C° 0 mm 12 mps 722 mmHg 44%
    11:00 +21°C° 0 mm 12 mps 723 mmHg 36%
    12:00 +22°C° 0 mm 13 mps 722 mmHg 34%
    13:00 +23°C° 0 mm 13 mps 722 mmHg 32%
    14:00 +24°C° 0 mm 13 mps 722 mmHg 30%
    15:00 +23°C° 0 mm 13 mps 721 mmHg 32%
    16:00 +22°C° 0 mm 14 mps 721 mmHg 33%
    17:00 +20°C° 0 mm 14 mps 721 mmHg 35%
    18:00 +18°C° 0 mm 14 mps 721 mmHg 39%
    19:00 +15°C° 0 mm 14 mps 721 mmHg 43%
    20:00 +14°C° 0 mm 13 mps 721 mmHg 47%
    21:00 +13°C° 0 mm 13 mps 721 mmHg 49%
    22:00 +12°C° 0 mm 12 mps 721 mmHg 52%
    23:00 +12°C° 0 mm 12 mps 721 mmHg 54%

    Day after tomorrow, 27 September, Thursday

    Time Temperature Precipitation Wind Pressure Humidity
    00:00 +12°C° 0 mm 12 mps 720 mmHg 53%
    01:00 +12°C° 0 mm 11 mps 720 mmHg 53%
    02:00 +12°C° 0 mm 11 mps 719 mmHg 52%
    03:00 +12°C° 0 mm 11 mps 719 mmHg 52%
    04:00 +12°C° 0 mm 11 mps 718 mmHg 51%
    05:00 +13°C° 0 mm 11 mps 718 mmHg 50%
    06:00 +13°C° 0.4 mm 10 mps 718 mmHg 52%
    07:00 +13°C° 0.4 mm 10 mps 718 mmHg 54%
    08:00 +15°C° 0.4 mm 9 mps 718 mmHg 56%
    09:00 +16°C° 0.6 mm 9 mps 718 mmHg 53%
    10:00 +17°C° 0.6 mm 8 mps 718 mmHg 50%
    11:00 +20°C° 0.6 mm 7 mps 718 mmHg 47%
    12:00 +20°C° 0.2 mm 7 mps 718 mmHg 48%
    13:00 +21°C° 0.2 mm 6 mps 718 mmHg 50%
    14:00 +21°C° 0.2 mm 5 mps 718 mmHg 51%
    15:00 +21°C° 0.2 mm 6 mps 718 mmHg 55%
    16:00 +21°C° 0.2 mm 6 mps 718 mmHg 58%
    17:00 +20°C° 0.2 mm 6 mps 718 mmHg 61%
    18:00 +19°C° 0.3 mm 6 mps 718 mmHg 66%
    19:00 +17°C° 0.3 mm 6 mps 718 mmHg 71%
    20:00 +15°C° 0.3 mm 5 mps 719 mmHg 77%
    21:00 +15°C° 0.6 mm 5 mps 719 mmHg 78%
    22:00 +15°C° 0.6 mm 5 mps 719 mmHg 79%
    23:00 +14°C° 0.6 mm 5 mps 719 mmHg 80%

    28 September, Friday

    Time Temperature Precipitation Wind Pressure Humidity
    00:00 +14°C° 0.5 mm 6 mps 719 mmHg 81%
    01:00 +14°C° 0.5 mm 6 mps 720 mmHg 82%
    02:00 +14°C° 0.5 mm 6 mps 720 mmHg 84%
    03:00 +14°C° 0.5 mm 6 mps 720 mmHg 84%
    04:00 +14°C° 0.5 mm 6 mps 720 mmHg 84%
    05:00 +14°C° 0.5 mm 6 mps 720 mmHg 84%
    06:00 +15°C° 0.3 mm 5 mps 720 mmHg 80%
    07:00 +16°C° 0.3 mm 5 mps 720 mmHg 76%
    08:00 +18°C° 0.3 mm 4 mps 721 mmHg 72%
    09:00 +20°C° 0.1 mm 4 mps 721 mmHg 65%
    10:00 +21°C° 0.1 mm 4 mps 721 mmHg 59%
    11:00 +22°C° 0.1 mm 4 mps 721 mmHg 52%
    12:00 +22°C° 0.3 mm 4 mps 721 mmHg 52%
    13:00 +22°C° 0.3 mm 4 mps 721 mmHg 52%
    14:00 +22°C° 0.3 mm 4 mps 721 mmHg 51%
    15:00 +21°C° 0.5 mm 4 mps 721 mmHg 57%
    16:00 +20°C° 0.5 mm 4 mps 721 mmHg 62%
    17:00 +19°C° 0.5 mm 3 mps 721 mmHg 68%
    18:00 +18°C° 0 mm 4 mps 721 mmHg 72%
    19:00 +17°C° 0 mm 4 mps 721 mmHg 76%
    20:00 +15°C° 0 mm 4 mps 721 mmHg 80%
    21:00 +15°C° 0.2 mm 4 mps 721 mmHg 81%
    22:00 +15°C° 0.2 mm 4 mps 721 mmHg 81%
    23:00 +14°C° 0.2 mm 5 mps 721 mmHg 82%

    29 September, Saturday

    Time Temperature Precipitation Wind Pressure Humidity
    00:00 +14°C° 0.3 mm 5 mps 721 mmHg 83%
    01:00 +14°C° 0.3 mm 5 mps 721 mmHg 83%
    02:00 +14°C° 0.3 mm 5 mps 721 mmHg 84%
    03:00 +14°C° 0.7 mm 4 mps 720 mmHg 84%
    04:00 +14°C° 0.7 mm 4 mps 720 mmHg 84%
    05:00 +14°C° 0.7 mm 4 mps 720 mmHg 84%
    06:00 +15°C° 0.6 mm 4 mps 720 mmHg 80%
    07:00 +17°C° 0.6 mm 4 mps 720 mmHg 76%
    08:00 +18°C° 0.6 mm 4 mps 720 mmHg 72%
    09:00 +19°C° 0.2 mm 4 mps 720 mmHg 67%
    10:00 +20°C° 0.2 mm 4 mps 720 mmHg 61%
    11:00 +22°C° 0.2 mm 4 mps 720 mmHg 56%
    12:00 +21°C° 0.4 mm 4 mps 720 mmHg 58%
    13:00 +21°C° 0.4 mm 3 mps 720 mmHg 59%
    14:00 +21°C° 0.4 mm 3 mps 720 mmHg 61%
    15:00 +20°C° 0.4 mm 2 mps 720 mmHg 63%
    16:00 +20°C° 0.4 mm 2 mps 720 mmHg 66%
    17:00 +19°C° 0.4 mm 2 mps 720 mmHg 68%
    18:00 +19°C° 0.1 mm 1 mps 720 mmHg 71%
    19:00 +18°C° 0.1 mm 1 mps 720 mmHg 75%
    20:00 +15°C° 0.1 mm 0 mps 720 mmHg 78%
    21:00 +15°C° 0 mm 0 mps 720 mmHg 78%
    22:00 +15°C° 0 mm 0 mps 720 mmHg 79%
    23:00 +16°C° 0 mm 1 mps 720 mmHg 79%

    30 September, Sunday

    Time Temperature Precipitation Wind Pressure Humidity
    00:00 +16°C° 0 mm 1 mps 720 mmHg 80%
    01:00 +15°C° 0 mm 1 mps 720 mmHg 81%
    02:00 +15°C° 0 mm 2 mps 720 mmHg 83%
    03:00 +15°C° 0 mm 2 mps 720 mmHg 83%
    04:00 +15°C° 0 mm 2 mps 720 mmHg 84%
    05:00 +14°C° 0 mm 2 mps 721 mmHg 85%
    06:00 +15°C° 0 mm 2 mps 721 mmHg 80%
    07:00 +16°C° 0 mm 2 mps 721 mmHg 76%
    08:00 +17°C° 0 mm 3 mps 721 mmHg 71%
    09:00 +19°C° 0 mm 3 mps 722 mmHg 63%
    10:00 +21°C° 0 mm 3 mps 722 mmHg 55%
    11:00 +24°C° 0 mm 3 mps 722 mmHg 47%
    12:00 +24°C° 0 mm 3 mps 722 mmHg 44%
    13:00 +25°C° 0 mm 4 mps 722 mmHg 42%
    14:00 +26°C° 0 mm 4 mps 721 mmHg 39%
    15:00 +25°C° 0 mm 5 mps 721 mmHg 42%
    16:00 +23°C° 0 mm 5 mps 721 mmHg 44%
    17:00 +23°C° 0 mm 5 mps 721 mmHg 46%
    18:00 +21°C° 0 mm 5 mps 722 mmHg 52%
    19:00 +20°C° 0 mm 5 mps 722 mmHg 57%
    20:00 +19°C° 0 mm 6 mps 722 mmHg 63%
    21:00 +17°C° 0 mm 5 mps 722 mmHg 65%
    22:00 +16°C° 0 mm 5 mps 722 mmHg 67%
    23:00 +16°C° 0 mm 5 mps 722 mmHg 69%
    Show more